This is the latest recevied weather packets stored in our database for station/object KD9JB-1. If no packets are shown the sender has not sent any weather packets the latest 10 day(s).
| Time | Temp. | Humidity | Pressure | Rain* | Wind** | Luminosity | Snow |
|---|---|---|---|---|---|---|---|
| 1777439811 | 16.67° C | 92% | 1012.1 hPa | 4.83 mm | - | - | - |
| 1777439511 | 16.67° C | 92% | 1012.3 hPa | 4.57 mm | - | - | - |
| 1777439211 | 17.22° C | 91% | 1012.5 hPa | 4.57 mm | - | - | - |
| 1777438911 | 17.22° C | 91% | 1012.7 hPa | 4.06 mm | - | - | - |
| 1777438611 | 17.22° C | 91% | 1012.9 hPa | 3.3 mm | - | - | - |
| 1777438311 | 17.22° C | 91% | 1013 hPa | 3.05 mm | - | - | - |
| 1777438011 | 17.22° C | 91% | 1013 hPa | 2.79 mm | - | - | - |
| 1777437711 | 17.22° C | 91% | 1013.1 hPa | 2.54 mm | - | - | - |
| 1777437411 | 17.22° C | 91% | 1013.2 hPa | 2.03 mm | - | - | - |
| 1777437111 | 17.78° C | 90% | 1013.3 hPa | 1.52 mm | - | - | - |
| 1777436811 | 17.78° C | 89% | 1013.5 hPa | 1.02 mm | - | - | - |
| 1777436511 | 17.78° C | 89% | 1013.8 hPa | 0.51 mm | - | - | - |
| 1777436211 | 17.78° C | 89% | 1013.9 hPa | 0 mm | - | - | - |
| 1777435912 | 17.78° C | 89% | 1013.5 hPa | 0 mm | - | - | - |
| 1777435611 | 17.78° C | 89% | 1012.4 hPa | 0 mm | - | - | - |
| 1777435311 | 17.78° C | 89% | 1011.7 hPa | 0 mm | - | - | - |
| 1777435011 | 17.78° C | 89% | 1011.5 hPa | 0 mm | - | - | - |
| 1777434711 | 17.78° C | 89% | 1011.3 hPa | 0 mm | - | - | - |
| 1777434411 | 17.78° C | 90% | 1011.4 hPa | 0 mm | - | - | - |
| 1777434111 | 17.78° C | 90% | 1011.1 hPa | 0 mm | - | - | - |
| 1777433811 | 17.78° C | 89% | 1011 hPa | 0 mm | - | - | - |
| 1777433511 | 17.78° C | 88% | 1011.3 hPa | 0 mm | - | - | - |
| 1777433211 | 17.78° C | 88% | 1011.9 hPa | 0 mm | - | - | - |
| 1777432911 | 17.78° C | 86% | 1012.5 hPa | 0 mm | - | - | - |
| 1777432611 | 17.78° C | 85% | 1013 hPa | 0 mm | - | - | - |
* Rain latest hour (hover to see other rain measurements)
** Current wind speed in m/s (hover to see current wind gust speed)